| time (UTC) | temp F | wind direction | speed knots | gust knots | rain 1hr in | rain 24hr in | rain mn in | humidity % | barometer mb |
| 20260905085502 | 56 | 166 | 1.7 | 5.2 | 0.00 | 0.00 | 0.00 | 91 | 1012.6 |
| 20260905085001 | 56 | 179 | 0.9 | 4.3 | 0.00 | 0.00 | 0.00 | 91 | 1012.6 |
| 20260905084502 | 56 | 186 | 0.9 | 3.5 | 0.00 | 0.00 | 0.00 | 91 | 1012.6 |
| 20260905084001 | 56 | 169 | 0.9 | 4.3 | 0.00 | 0.00 | 0.00 | 91 | 1012.6 |
| 20260905083502 | 56 | 157 | 0.9 | 4.3 | 0.00 | 0.00 | 0.00 | 91 | 1012.6 |
| 20260905083002 | 56 | 155 | 0.9 | 4.3 | 0.00 | 0.00 | 0.00 | 91 | 1012.6 |
| 20260905082501 | 56 | 155 | 0.9 | 2.6 | 0.00 | 0.00 | 0.00 | 91 | 1012.6 |
| 20260905082002 | 56 | 156 | 0.9 | 2.6 | 0.00 | 0.00 | 0.00 | 91 | 1012.6 |
| 20260905081523 | 57 | 160 | 0.9 | 4.3 | 0.00 | 0.00 | 0.00 | 90 | 1012.6 |
| 20260905081002 | 57 | 163 | 1.7 | 4.3 | 0.00 | 0.00 | 0.00 | 90 | 1012.6 |
| 20260905080502 | 57 | 162 | 1.7 | 4.3 | 0.00 | 0.00 | 0.00 | 90 | 1012.6 |
| 20260905080002 | 57 | 157 | 0.9 | 2.6 | 0.00 | 0.00 | 0.00 | 90 | 1012.6 |
| 20260905075502 | 56 | 158 | 0.0 | 2.6 | 0.00 | 0.00 | 0.00 | 90 | 1012.6 |
| 20260905075001 | 56 | 159 | 0.9 | 3.5 | 0.00 | 0.00 | 0.00 | 90 | 1012.6 |
| 20260905074501 | 56 | 159 | 0.9 | 3.5 | 0.00 | 0.00 | 0.00 | 89 | 1012.6 |
| 20260905074022 | 56 | 159 | 0.9 | 3.5 | 0.00 | 0.00 | 0.00 | 89 | 1012.6 |
| 20260905073502 | 56 | 160 | 0.9 | 3.5 | 0.00 | 0.00 | 0.00 | 89 | 1012.6 |
| 20260905073002 | 56 | 161 | 0.9 | 3.5 | 0.00 | 0.01 | 0.00 | 88 | 1012.6 |
| 20260905072502 | 56 | 162 | 0.9 | 3.5 | 0.00 | 0.01 | 0.00 | 88 | 1012.6 |
| 20260905072002 | 56 | 163 | 0.9 | 4.3 | 0.00 | 0.01 | 0.00 | 88 | 1012.6 |
| 20260905071502 | 56 | 164 | 1.7 | 5.2 | 0.00 | 0.01 | 0.00 | 88 | 1012.6 |
| 20260905071001 | 56 | 165 | 0.9 | 5.2 | 0.00 | 0.01 | 0.00 | 87 | 1012.6 |
| 20260905070502 | 56 | 167 | 0.9 | 3.5 | 0.00 | 0.01 | 0.00 | 87 | 1012.6 |
| 20260905070009 | 56 | 167 | 0.9 | 3.5 | 0.00 | 0.01 | 0.00 | 87 | 1012.6 |
| 20260905065523 | 56 | 168 | 0.9 | 3.5 | 0.00 | 0.01 | 0.01 | 87 | 1012.6 |
| 20260905065001 | 56 | 169 | 0.9 | 3.5 | 0.00 | 0.01 | 0.01 | 87 | 1012.6 |
| 20260905064501 | 57 | 169 | 0.9 | 3.5 | 0.00 | 0.01 | 0.01 | 87 | 1012.6 |
| 20260905064002 | 57 | 169 | 0.9 | 3.5 | 0.00 | 0.01 | 0.01 | 86 | 1012.6 |
| 20260905063502 | 57 | 169 | 0.0 | 1.7 | 0.00 | 0.01 | 0.01 | 86 | 1012.6 |
| 20260905063002 | 57 | 169 | 0.9 | 3.5 | 0.00 | 0.01 | 0.01 | 86 | 1012.6 |
| 20260905062502 | 57 | 169 | 0.9 | 3.5 | 0.00 | 0.01 | 0.01 | 86 | 1012.6 |
| 20260905062002 | 57 | 169 | 0.9 | 3.5 | 0.00 | 0.02 | 0.01 | 85 | 1012.6 |
| 20260905061501 | 57 | 170 | 1.7 | 3.5 | 0.00 | 0.03 | 0.01 | 85 | 1012.6 |
| 20260905061002 | 57 | 170 | 1.7 | 4.3 | 0.00 | 0.03 | 0.01 | 85 | 1012.6 |
| 20260905060501 | 57 | 190 | 1.7 | 4.3 | 0.00 | 0.03 | 0.01 | 85 | 1012.6 |
| 20260905060002 | 57 | 227 | 1.7 | 2.6 | 0.00 | 0.04 | 0.01 | 84 | 1012.6 |
| 20260905055502 | 58 | 245 | 0.9 | 2.6 | 0.00 | 0.05 | 0.01 | 84 | 1012.6 |
| 20260905055002 | 58 | 247 | 0.0 | 1.7 | 0.00 | 0.06 | 0.01 | 84 | 1012.6 |
| 20260905054502 | 58 | 247 | 0.0 | 1.7 | 0.00 | 0.06 | 0.01 | 84 | 1012.6 |
| 20260905054002 | 58 | 247 | 0.9 | 1.7 | 0.00 | 0.07 | 0.01 | 84 | 1012.6 |
| 20260905053502 | 58 | 247 | 0.9 | 2.6 | 0.00 | 0.07 | 0.01 | 84 | 1012.6 |
| 20260905053002 | 58 | 246 | 0.9 | 2.6 | 0.00 | 0.08 | 0.01 | 84 | 1012.6 |
| 20260905052502 | 58 | 245 | 0.9 | 3.5 | 0.00 | 0.08 | 0.01 | 84 | 1012.6 |
| 20260905052002 | 58 | 243 | 0.9 | 3.5 | 0.00 | 0.09 | 0.01 | 83 | 1012.6 |
| 20260905051501 | 58 | 242 | 0.9 | 2.6 | 0.00 | 0.09 | 0.01 | 83 | 1012.6 |
| 20260905051002 | 58 | 242 | 0.0 | 2.6 | 0.00 | 0.09 | 0.01 | 83 | 1012.6 |
| 20260905050502 | 58 | 242 | 0.0 | 2.6 | 0.00 | 0.09 | 0.01 | 83 | 1012.6 |
| 20260905050002 | 58 | 242 | 0.9 | 2.6 | 0.00 | 0.09 | 0.01 | 83 | 1012.6 |
| 20260905045502 | 58 | 242 | 0.9 | 2.6 | 0.00 | 0.09 | 0.01 | 82 | 1012.6 |
| 20260905045001 | 58 | 242 | 0.9 | 2.6 | 0.00 | 0.10 | 0.01 | 82 | 1012.6 |
| 20260905044502 | 58 | 245 | 0.9 | 2.6 | 0.00 | 0.10 | 0.01 | 82 | 1012.6 |
| 20260905044002 | 58 | 251 | 1.7 | 3.5 | 0.00 | 0.10 | 0.01 | 82 | 1012.6 |
| 20260905043523 | 58 | 253 | 1.7 | 3.5 | 0.00 | 0.10 | 0.01 | 82 | 1012.6 |
| 20260905043001 | 59 | 252 | 0.9 | 3.5 | 0.00 | 0.10 | 0.01 | 81 | 1012.6 |
| 20260905042502 | 59 | 253 | 0.9 | 3.5 | 0.00 | 0.10 | 0.01 | 81 | 1012.6 |
| 20260905042002 | 59 | 252 | 0.9 | 3.5 | 0.00 | 0.10 | 0.01 | 81 | 1012.6 |
| 20260905041502 | 59 | 251 | 0.9 | 3.5 | 0.00 | 0.10 | 0.01 | 81 | 1012.6 |
| 20260905041023 | 59 | 249 | 0.9 | 3.5 | 0.00 | 0.10 | 0.01 | 80 | 1012.6 |
| 20260905040523 | 59 | 242 | 0.9 | 4.3 | 0.00 | 0.11 | 0.01 | 79 | 1012.6 |
| 20260905040002 | 59 | 250 | 1.7 | 4.3 | 0.00 | 0.11 | 0.01 | 79 | 1012.6 |
| 20260905035502 | 59 | 252 | 1.7 | 4.3 | 0.00 | 0.12 | 0.01 | 78 | 1012.6 |
| 20260905035002 | 59 | 248 | 0.9 | 4.3 | 0.00 | 0.12 | 0.01 | 78 | 1012.6 |
| 20260905034502 | 59 | 247 | 1.7 | 5.2 | 0.00 | 0.13 | 0.01 | 78 | 1012.6 |
| 20260905034002 | 60 | 248 | 1.7 | 5.2 | 0.00 | 0.14 | 0.01 | 78 | 1012.6 |
| 20260905033523 | 60 | 251 | 0.9 | 2.6 | 0.00 | 0.14 | 0.01 | 78 | 1012.6 |
| 20260905033002 | 60 | 253 | 0.9 | 3.5 | 0.00 | 0.14 | 0.01 | 77 | 1012.6 |
| 20260905032523 | 60 | 254 | 0.9 | 3.5 | 0.00 | 0.14 | 0.01 | 76 | 1012.6 |
| 20260905032002 | 60 | 262 | 0.0 | 2.6 | 0.00 | 0.14 | 0.01 | 76 | 1012.6 |
| 20260905031502 | 60 | 265 | 0.9 | 3.5 | 0.00 | 0.14 | 0.01 | 75 | 1012.6 |
| 20260905031002 | 60 | 279 | 0.0 | 3.5 | 0.00 | 0.14 | 0.01 | 75 | 1012.6 |
| 20260905030502 | 61 | 315 | 0.0 | 1.7 | 0.00 | 0.14 | 0.01 | 74 | 1012.6 |
| 20260905030002 | 61 | 314 | 0.9 | 2.6 | 0.00 | 0.14 | 0.01 | 74 | 1012.6 |
| 20260905025523 | 61 | 314 | 0.9 | 2.6 | 0.00 | 0.14 | 0.01 | 74 | 1012.6 |
| 20260905025002 | 61 | 307 | 0.9 | 3.5 | 0.00 | 0.14 | 0.01 | 73 | 1012.6 |
| 20260905024502 | 62 | 303 | 0.9 | 3.5 | 0.00 | 0.14 | 0.01 | 73 | 1012.6 |
| 20260905024002 | 62 | 307 | 0.9 | 3.5 | 0.00 | 0.14 | 0.01 | 72 | 1012.6 |
| 20260905023502 | 62 | 310 | 0.9 | 3.5 | 0.00 | 0.14 | 0.01 | 72 | 1012.6 |
| 20260905023003 | 62 | 307 | 0.9 | 3.5 | 0.00 | 0.14 | 0.01 | 71 | 1012.6 |
| 20260905022502 | 63 | 300 | 0.9 | 2.6 | 0.00 | 0.14 | 0.01 | 71 | 1012.6 |
| 20260905022002 | 63 | 317 | 0.9 | 5.2 | 0.00 | 0.14 | 0.01 | 71 | 1012.6 |
| 20260905021502 | 63 | 326 | 1.7 | 5.2 | 0.00 | 0.14 | 0.01 | 70 | 1012.6 |
| 20260905021002 | 64 | 320 | 1.7 | 5.2 | 0.00 | 0.14 | 0.01 | 70 | 1012.6 |
| 20260905020502 | 64 | 316 | 0.9 | 3.5 | 0.00 | 0.14 | 0.01 | 69 | 1012.6 |
| 20260905020002 | 64 | 313 | 0.9 | 4.3 | 0.00 | 0.14 | 0.01 | 69 | 1012.6 |
| 20260905015502 | 65 | 285 | 1.7 | 4.3 | 0.00 | 0.14 | 0.01 | 68 | 1012.6 |
| 20260905015023 | 65 | 254 | 1.7 | 5.2 | 0.00 | 0.14 | 0.01 | 68 | 1012.6 |
| 20260905014523 | 65 | 289 | 1.7 | 7.8 | 0.00 | 0.14 | 0.01 | 66 | 1012.6 |
| 20260905014002 | 66 | 318 | 1.7 | 7.8 | 0.00 | 0.14 | 0.01 | 65 | 1012.6 |
| 20260905013502 | 66 | 300 | 1.7 | 9.6 | 0.00 | 0.14 | 0.01 | 64 | 1012.6 |
| 20260905013023 | 67 | 287 | 1.7 | 9.6 | 0.00 | 0.14 | 0.01 | 63 | 1012.6 |
| 20260905012502 | 67 | 296 | 1.7 | 6.1 | 0.00 | 0.14 | 0.01 | 64 | 1012.6 |
| 20260905012023 | 68 | 311 | 1.7 | 4.3 | 0.00 | 0.14 | 0.01 | 63 | 1012.6 |
| 20260905011502 | 68 | 314 | 2.6 | 7.0 | 0.00 | 0.14 | 0.01 | 63 | 1012.6 |
| 20260905011002 | 68 | 309 | 1.7 | 7.0 | 0.00 | 0.14 | 0.01 | 62 | 1012.6 |
| 20260905010502 | 68 | 294 | 1.7 | 5.2 | 0.00 | 0.14 | 0.01 | 60 | 1012.6 |
| 20260905010002 | 69 | 273 | 0.9 | 4.3 | 0.00 | 0.14 | 0.01 | 60 | 1012.6 |
| 20260905005502 | 69 | 309 | 1.7 | 9.6 | 0.00 | 0.14 | 0.01 | 60 | 1012.6 |
| 20260905005002 | 69 | 327 | 1.7 | 9.6 | 0.00 | 0.14 | 0.01 | 59 | 1012.6 |
| 20260905004502 | 69 | 321 | 1.7 | 6.1 | 0.00 | 0.14 | 0.01 | 59 | 1012.6 |
| 20260905004002 | 70 | 300 | 1.7 | 6.1 | 0.00 | 0.14 | 0.01 | 59 | 1012.6 |
| 20260905003502 | 70 | 295 | 1.7 | 5.2 | 0.00 | 0.14 | 0.01 | 59 | 1012.6 |
| 20260905003002 | 70 | 289 | 1.7 | 6.1 | 0.00 | 0.14 | 0.01 | 58 | 1012.6 |
| 20260905002502 | 70 | 261 | 1.7 | 6.1 | 0.00 | 0.14 | 0.01 | 58 | 1012.6 |
| 20260905002002 | 70 | 265 | 1.7 | 6.1 | 0.00 | 0.14 | 0.01 | 57 | 1012.6 |
| 20260905001502 | 70 | 306 | 1.7 | 6.1 | 0.00 | 0.14 | 0.01 | 56 | 1012.6 |
| 20260905001002 | 70 | 320 | 1.7 | 5.2 | 0.00 | 0.14 | 0.01 | 58 | 1012.6 |
| 20260905000523 | 70 | 326 | 1.7 | 7.8 | 0.00 | 0.14 | 0.01 | 58 | 1012.6 |
| 20260905000002 | 70 | 340 | 2.6 | 7.8 | 0.00 | 0.14 | 0.01 | 57 | 1012.6 |
| 20260904235502 | 71 | 335 | 1.7 | 7.0 | 0.00 | 0.14 | 0.01 | 56 | 1012.6 |
| 20260904235002 | 71 | 321 | 1.7 | 8.7 | 0.00 | 0.14 | 0.01 | 56 | 1012.6 |
| 20260904234523 | 71 | 335 | 1.7 | 8.7 | 0.00 | 0.14 | 0.01 | 57 | 1012.6 |
| 20260904234002 | 71 | 337 | 1.7 | 7.0 | 0.00 | 0.14 | 0.01 | 57 | 1012.6 |
| 20260904233502 | 71 | 321 | 1.7 | 8.7 | 0.00 | 0.14 | 0.01 | 57 | 1012.6 |
| 20260904233002 | 71 | 328 | 2.6 | 8.7 | 0.00 | 0.14 | 0.01 | 56 | 1012.6 |
| 20260904232502 | 71 | 338 | 2.6 | 8.7 | 0.00 | 0.14 | 0.01 | 55 | 1012.6 |
| 20260904232002 | 71 | 328 | 2.6 | 8.7 | 0.00 | 0.14 | 0.01 | 56 | 1012.6 |
| 20260904231502 | 71 | 312 | 2.6 | 7.0 | 0.00 | 0.14 | 0.01 | 57 | 1012.6 |
| 20260904231002 | 71 | 301 | 2.6 | 7.0 | 0.00 | 0.14 | 0.01 | 56 | 1012.6 |
| 20260904230502 | 71 | 303 | 1.7 | 7.8 | 0.00 | 0.14 | 0.01 | 57 | 1012.6 |
| 20260904230023 | 71 | 319 | 1.7 | 7.8 | 0.00 | 0.14 | 0.01 | 56 | 1012.6 |
| 20260904225502 | 71 | 323 | 1.7 | 7.0 | 0.00 | 0.14 | 0.01 | 56 | 1012.6 |
| 20260904225002 | 71 | 322 | 1.7 | 7.0 | 0.00 | 0.14 | 0.01 | 56 | 1012.6 |
| 20260904224523 | 71 | 332 | 2.6 | 7.8 | 0.00 | 0.14 | 0.01 | 56 | 1012.6 |
| 20260904224002 | 71 | 309 | 2.6 | 11.3 | 0.00 | 0.14 | 0.01 | 55 | 1012.6 |
| 20260904223502 | 71 | 295 | 1.7 | 11.3 | 0.00 | 0.14 | 0.01 | 55 | 1012.6 |
| 20260904223002 | 71 | 330 | 1.7 | 7.8 | 0.00 | 0.14 | 0.01 | 56 | 1012.6 |
| 20260904222502 | 71 | 335 | 1.7 | 7.8 | 0.00 | 0.14 | 0.01 | 55 | 1012.6 |
| 20260904222002 | 71 | 330 | 1.7 | 7.8 | 0.00 | 0.14 | 0.01 | 57 | 1012.6 |
| 20260904221502 | 71 | 320 | 1.7 | 7.8 | 0.00 | 0.14 | 0.01 | 56 | 1012.6 |
| 20260904221002 | 71 | 317 | 1.7 | 5.2 | 0.00 | 0.14 | 0.01 | 56 | 1012.6 |
| 20260904220523 | 71 | 313 | 1.7 | 5.2 | 0.00 | 0.14 | 0.01 | 56 | 1012.6 |
| 20260904220002 | 70 | 299 | 2.6 | 7.0 | 0.00 | 0.14 | 0.01 | 56 | 1012.6 |
| 20260904215502 | 70 | 323 | 2.6 | 8.7 | 0.00 | 0.14 | 0.01 | 57 | 1012.6 |
| 20260904215002 | 70 | 340 | 2.6 | 8.7 | 0.00 | 0.14 | 0.01 | 56 | 1012.6 |
| 20260904214502 | 70 | 323 | 1.7 | 8.7 | 0.00 | 0.14 | 0.01 | 56 | 1012.6 |
| 20260904214002 | 70 | 271 | 2.6 | 7.8 | 0.00 | 0.14 | 0.01 | 55 | 1012.6 |
| 20260904213502 | 70 | 250 | 2.6 | 7.8 | 0.00 | 0.14 | 0.01 | 53 | 1012.6 |
| 20260904213002 | 70 | 248 | 2.6 | 7.0 | 0.00 | 0.14 | 0.01 | 54 | 1012.6 |
| 20260904212502 | 70 | 241 | 1.7 | 7.0 | 0.00 | 0.14 | 0.01 | 54 | 1012.6 |
| 20260904212002 | 70 | 252 | 2.6 | 7.0 | 0.00 | 0.14 | 0.01 | 55 | 1012.6 |
| 20260904211502 | 69 | 255 | 2.6 | 7.0 | 0.00 | 0.14 | 0.01 | 52 | 1012.6 |
| 20260904211002 | 69 | 282 | 2.6 | 7.0 | 0.00 | 0.14 | 0.01 | 51 | 1012.6 |
| 20260904210502 | 69 | 320 | 2.6 | 7.0 | 0.00 | 0.14 | 0.01 | 54 | 1012.6 |
| 20260904210002 | 69 | 294 | 2.6 | 6.1 | 0.00 | 0.14 | 0.01 | 57 | 1012.6 |
| 20260904205523 | 69 | 267 | 2.6 | 8.7 | 0.00 | 0.14 | 0.01 | 56 | 1012.6 |
| 20260904205002 | 69 | 229 | 2.6 | 8.7 | 0.00 | 0.14 | 0.01 | 57 | 1012.6 |
| 20260904204502 | 68 | 230 | 3.5 | 7.0 | 0.00 | 0.14 | 0.01 | 56 | 1012.6 |
| 20260904204002 | 68 | 237 | 2.6 | 7.0 | 0.00 | 0.14 | 0.01 | 58 | 1012.6 |
| 20260904203502 | 68 | 261 | 2.6 | 6.1 | 0.00 | 0.14 | 0.01 | 58 | 1012.6 |
| 20260904203002 | 68 | 305 | 2.6 | 6.1 | 0.00 | 0.14 | 0.01 | 58 | 1012.6 |
| 20260904202502 | 68 | 277 | 2.6 | 6.1 | 0.00 | 0.14 | 0.01 | 57 | 1012.6 |
| 20260904202002 | 68 | 238 | 2.6 | 6.1 | 0.00 | 0.14 | 0.01 | 59 | 1012.6 |
| 20260904201502 | 68 | 252 | 1.7 | 6.1 | 0.00 | 0.14 | 0.01 | 60 | 1012.6 |
| 20260904201023 | 68 | 249 | 2.6 | 7.8 | 0.00 | 0.14 | 0.01 | 58 | 1012.6 |
| 20260904200523 | 68 | 263 | 2.6 | 7.8 | 0.00 | 0.14 | 0.01 | 59 | 1012.6 |
| 20260904200002 | 68 | 294 | 1.7 | 4.3 | 0.00 | 0.14 | 0.01 | 58 | 1012.6 |
| 20260904195502 | 68 | 314 | 1.7 | 4.3 | 0.00 | 0.14 | 0.01 | 59 | 1012.6 |
| 20260904195023 | 68 | 327 | 1.7 | 4.3 | 0.00 | 0.14 | 0.01 | 61 | 1012.6 |
| 20260904194502 | 68 | 323 | 1.7 | 4.3 | 0.00 | 0.14 | 0.01 | 61 | 1012.6 |
| 20260904194002 | 67 | 302 | 0.9 | 4.3 | 0.00 | 0.14 | 0.01 | 61 | 1012.6 |
| 20260904193502 | 67 | 286 | 0.9 | 5.2 | 0.00 | 0.14 | 0.01 | 64 | 1012.6 |
| 20260904193002 | 66 | 252 | 1.7 | 5.2 | 0.00 | 0.14 | 0.01 | 65 | 1012.6 |
| 20260904192502 | 66 | 228 | 1.7 | 7.0 | 0.00 | 0.14 | 0.01 | 65 | 1012.6 |
| 20260904192002 | 66 | 234 | 1.7 | 7.0 | 0.00 | 0.14 | 0.01 | 65 | 1012.6 |
| 20260904191502 | 65 | 230 | 2.6 | 6.1 | 0.00 | 0.14 | 0.01 | 65 | 1012.6 |
| 20260904191002 | 66 | 233 | 2.6 | 6.1 | 0.00 | 0.14 | 0.01 | 64 | 1012.6 |
| 20260904190502 | 66 | 247 | 1.7 | 6.1 | 0.00 | 0.14 | 0.01 | 65 | 1012.6 |
| 20260904190002 | 65 | 248 | 2.6 | 7.0 | 0.00 | 0.14 | 0.01 | 66 | 1012.6 |
| 20260904185523 | 65 | 259 | 1.7 | 7.0 | 0.00 | 0.14 | 0.01 | 66 | 1012.6 |
| 20260904185002 | 65 | 306 | 0.9 | 6.1 | 0.00 | 0.14 | 0.01 | 67 | 1012.6 |
| 20260904184502 | 65 | 260 | 1.7 | 5.2 | 0.00 | 0.14 | 0.01 | 70 | 1012.6 |
| 20260904184002 | 65 | 237 | 1.7 | 5.2 | 0.00 | 0.14 | 0.01 | 71 | 1012.6 |
| 20260904183502 | 64 | 227 | 1.7 | 6.1 | 0.00 | 0.14 | 0.01 | 73 | 1012.6 |
| 20260904183002 | 64 | 232 | 2.6 | 6.1 | 0.00 | 0.14 | 0.01 | 73 | 1012.6 |
| 20260904182502 | 63 | 247 | 1.7 | 6.1 | 0.00 | 0.14 | 0.01 | 73 | 1012.6 |
| 20260904182002 | 63 | 273 | 0.9 | 4.3 | 0.00 | 0.14 | 0.01 | 76 | 1012.6 |
| 20260904181502 | 62 | 244 | 1.7 | 5.2 | 0.00 | 0.14 | 0.01 | 79 | 1012.6 |
| 20260904181002 | 62 | 228 | 1.7 | 5.2 | 0.00 | 0.14 | 0.01 | 82 | 1012.6 |
| 20260904180502 | 62 | 230 | 1.7 | 4.3 | 0.00 | 0.14 | 0.01 | 85 | 1012.6 |
| 20260904180002 | 61 | 233 | 0.9 | 3.5 | 0.00 | 0.14 | 0.01 | 88 | 1012.6 |
| 20260904175502 | 60 | 232 | 0.9 | 3.5 | 0.00 | 0.14 | 0.01 | 89 | 1012.6 |
| 20260904175002 | 60 | 233 | 1.7 | 4.3 | 0.00 | 0.14 | 0.01 | 90 | 1012.6 |
| 20260904174502 | 60 | 233 | 1.7 | 5.2 | 0.00 | 0.14 | 0.01 | 91 | 1012.6 |
| 20260904174002 | 60 | 227 | 0.9 | 5.2 | 0.00 | 0.14 | 0.01 | 93 | 1012.6 |
| 20260904173502 | 59 | 225 | 0.9 | 3.5 | 0.00 | 0.14 | 0.01 | 94 | 1012.6 |
| 20260904173002 | 59 | 231 | 0.9 | 2.6 | 0.00 | 0.14 | 0.01 | 94 | 1012.6 |
| 20260904172502 | 58 | 234 | 0.9 | 2.6 | 0.00 | 0.14 | 0.01 | 95 | 1012.6 |
| 20260904172002 | 58 | 238 | 0.9 | 3.5 | 0.00 | 0.14 | 0.01 | 95 | 1012.6 |
| 20260904171502 | 58 | 239 | 0.9 | 3.5 | 0.00 | 0.14 | 0.01 | 95 | 1012.6 |
| 20260904171023 | 58 | 239 | 0.9 | 3.5 | 0.00 | 0.14 | 0.01 | 95 | 1012.6 |
| 20260904170502 | 58 | 239 | 0.9 | 3.5 | 0.00 | 0.14 | 0.01 | 95 | 1012.6 |
| 20260904170002 | 58 | 236 | 0.9 | 3.5 | 0.00 | 0.14 | 0.01 | 95 | 1012.6 |
| 20260904165502 | 58 | 234 | 0.9 | 3.5 | 0.00 | 0.14 | 0.01 | 95 | 1012.6 |
| 20260904165002 | 58 | 232 | 0.9 | 3.5 | 0.00 | 0.14 | 0.01 | 95 | 1012.6 |
| 20260904164502 | 58 | 231 | 0.9 | 3.5 | 0.00 | 0.14 | 0.01 | 95 | 1012.6 |
| 20260904164002 | 58 | 230 | 0.9 | 2.6 | 0.00 | 0.14 | 0.01 | 96 | 1012.6 |
| 20260904163502 | 58 | 229 | 0.9 | 2.6 | 0.00 | 0.14 | 0.01 | 96 | 1012.6 |
| 20260904163002 | 58 | 228 | 0.9 | 2.6 | 0.00 | 0.14 | 0.01 | 96 | 1012.6 |
| 20260904162523 | 58 | 229 | 0.9 | 2.6 | 0.00 | 0.14 | 0.01 | 96 | 1012.6 |
| 20260904162002 | 58 | 229 | 0.9 | 2.6 | 0.00 | 0.14 | 0.01 | 96 | 1012.6 |
| 20260904161502 | 58 | 229 | 0.9 | 2.6 | 0.00 | 0.14 | 0.01 | 96 | 1012.6 |
| 20260904161002 | 58 | 225 | 0.9 | 3.5 | 0.00 | 0.14 | 0.01 | 96 | 1012.6 |
| 20260904160502 | 58 | 208 | 1.7 | 3.5 | 0.00 | 0.14 | 0.01 | 96 | 1012.6 |
| 20260904160023 | 58 | 188 | 1.7 | 4.3 | 0.00 | 0.14 | 0.01 | 96 | 1012.6 |
| 20260904155502 | 58 | 175 | 1.7 | 4.3 | 0.00 | 0.14 | 0.01 | 96 | 1012.6 |
| 20260904155002 | 58 | 165 | 1.7 | 4.3 | 0.00 | 0.14 | 0.01 | 96 | 1012.6 |
| 20260904154523 | 58 | 164 | 1.7 | 4.3 | 0.00 | 0.14 | 0.01 | 96 | 1012.6 |
| 20260904154002 | 58 | 164 | 1.7 | 5.2 | 0.00 | 0.14 | 0.01 | 96 | 1012.6 |
| 20260904153502 | 58 | 168 | 1.7 | 5.2 | 0.00 | 0.14 | 0.01 | 96 | 1012.6 |
| 20260904153002 | 58 | 175 | 1.7 | 4.3 | 0.00 | 0.14 | 0.01 | 96 | 1012.6 |
| 20260904152502 | 57 | 183 | 1.7 | 3.5 | 0.00 | 0.14 | 0.01 | 96 | 1012.6 |
| 20260904152002 | 57 | 189 | 1.7 | 3.5 | 0.00 | 0.14 | 0.01 | 96 | 1012.6 |
| 20260904151502 | 57 | 195 | 1.7 | 3.5 | 0.00 | 0.14 | 0.01 | 96 | 1012.6 |
| 20260904151002 | 57 | 196 | 1.7 | 3.5 | 0.00 | 0.14 | 0.01 | 96 | 1012.6 |
| 20260904150502 | 57 | 197 | 1.7 | 3.5 | 0.00 | 0.14 | 0.01 | 96 | 1012.6 |
| 20260904150002 | 57 | 197 | 1.7 | 3.5 | 0.00 | 0.14 | 0.01 | 96 | 1012.6 |
| 20260904145502 | 57 | 198 | 0.9 | 3.5 | 0.00 | 0.14 | 0.01 | 96 | 1012.6 |
| 20260904145002 | 57 | 198 | 1.7 | 3.5 | 0.00 | 0.14 | 0.01 | 96 | 1012.6 |
| 20260904144502 | 57 | 196 | 0.9 | 4.3 | 0.00 | 0.14 | 0.01 | 96 | 1012.6 |
| 20260904144002 | 57 | 197 | 0.9 | 4.3 | 0.00 | 0.14 | 0.01 | 96 | 1012.6 |
| 20260904143502 | 57 | 208 | 0.9 | 4.3 | 0.00 | 0.14 | 0.01 | 96 | 1012.6 |
| 20260904143002 | 56 | 210 | 0.9 | 4.3 | 0.00 | 0.14 | 0.01 | 96 | 1012.6 |
| 20260904142502 | 56 | 211 | 0.9 | 2.6 | 0.00 | 0.14 | 0.01 | 96 | 1012.6 |
| 20260904142002 | 56 | 211 | 0.9 | 2.6 | 0.00 | 0.14 | 0.01 | 95 | 1012.6 |
| 20260904141502 | 56 | 213 | 1.7 | 2.6 | 0.00 | 0.14 | 0.01 | 95 | 1012.6 |
| 20260904141002 | 56 | 216 | 1.7 | 2.6 | 0.00 | 0.14 | 0.01 | 95 | 1012.6 |
| 20260904140502 | 56 | 218 | 0.9 | 3.5 | 0.00 | 0.14 | 0.01 | 95 | 1012.6 |
| 20260904140023 | 56 | 220 | 0.9 | 3.5 | 0.00 | 0.14 | 0.01 | 95 | 1012.6 |
| 20260904135502 | 56 | 221 | 0.9 | 2.6 | 0.00 | 0.14 | 0.01 | 96 | 1012.6 |
| 20260904135002 | 56 | 223 | 0.9 | 3.5 | 0.00 | 0.14 | 0.01 | 96 | 1012.6 |
| 20260904134502 | 56 | 225 | 0.9 | 3.5 | 0.00 | 0.14 | 0.01 | 96 | 1012.6 |
| 20260904134002 | 56 | 228 | 0.9 | 3.5 | 0.00 | 0.14 | 0.01 | 95 | 1012.6 |
| 20260904133502 | 57 | 231 | 0.9 | 3.5 | 0.00 | 0.14 | 0.01 | 95 | 1012.6 |
| 20260904133002 | 57 | 232 | 0.9 | 2.6 | 0.00 | 0.14 | 0.01 | 95 | 1012.6 |
| 20260904132502 | 57 | 233 | 0.9 | 2.6 | 0.00 | 0.14 | 0.01 | 95 | 1012.6 |
| 20260904132002 | 57 | 234 | 0.0 | 1.7 | 0.00 | 0.14 | 0.01 | 96 | 1012.6 |
| 20260904131502 | 57 | 234 | 0.9 | 1.7 | 0.00 | 0.14 | 0.01 | 96 | 1012.6 |
| 20260904131002 | 57 | 234 | 0.9 | 1.7 | 0.00 | 0.14 | 0.01 | 96 | 1012.6 |
| 20260904130502 | 57 | 234 | 0.0 | 1.7 | 0.00 | 0.14 | 0.01 | 95 | 1012.6 |
| 20260904130002 | 57 | 234 | 0.0 | 0.9 | 0.00 | 0.14 | 0.01 | 95 | 1012.6 |
| 20260904125502 | 57 | 234 | 0.0 | 1.7 | 0.00 | 0.14 | 0.01 | 95 | 1012.6 |
| 20260904125023 | 57 | 234 | 0.9 | 1.7 | 0.00 | 0.14 | 0.01 | 95 | 1012.6 |
| 20260904124502 | 57 | 234 | 0.0 | 1.7 | 0.00 | 0.14 | 0.01 | 95 | 1012.6 |
| 20260904124002 | 57 | 235 | 0.9 | 2.6 | 0.00 | 0.14 | 0.01 | 95 | 1012.6 |
| 20260904123502 | 57 | 235 | 0.9 | 2.6 | 0.00 | 0.14 | 0.01 | 95 | 1012.6 |
| 20260904123023 | 57 | 236 | 0.9 | 1.7 | 0.00 | 0.14 | 0.01 | 95 | 1012.6 |
| 20260904122523 | 57 | 236 | 0.9 | 1.7 | 0.00 | 0.14 | 0.01 | 95 | 1012.6 |
| 20260904122002 | 57 | 236 | 0.9 | 1.7 | 0.00 | 0.14 | 0.01 | 95 | 1012.6 |
| 20260904121502 | 57 | 237 | 0.9 | 1.7 | 0.00 | 0.14 | 0.01 | 95 | 1012.6 |
| 20260904121002 | 56 | 237 | 0.0 | 1.7 | 0.00 | 0.14 | 0.01 | 95 | 1012.6 |
| 20260904120502 | 57 | 237 | 0.9 | 1.7 | 0.00 | 0.14 | 0.01 | 95 | 1012.6 |
| 20260904120003 | 57 | 237 | 0.9 | 1.7 | 0.00 | 0.14 | 0.01 | 95 | 1012.6 |
| 20260904115503 | 57 | 237 | 0.0 | 1.7 | 0.00 | 0.14 | 0.01 | 95 | 1012.6 |
| 20260904115002 | 57 | 237 | 0.0 | 0.9 | 0.00 | 0.14 | 0.01 | 95 | 1012.6 |
| 20260904114502 | 57 | 236 | 0.9 | 3.5 | 0.00 | 0.14 | 0.01 | 95 | 1012.6 |
| 20260904114002 | 57 | 236 | 0.9 | 3.5 | 0.00 | 0.14 | 0.01 | 95 | 1012.5 |
| 20260904113503 | 57 | 235 | 0.9 | 2.6 | 0.00 | 0.14 | 0.01 | 95 | 1012.5 |
| 20260904113003 | 57 | 232 | 0.9 | 3.5 | 0.00 | 0.14 | 0.01 | 95 | 1012.5 |
| 20260904112502 | 57 | 227 | 0.9 | 3.5 | 0.00 | 0.14 | 0.01 | 95 | 1012.5 |
| 20260904112002 | 57 | 218 | 0.9 | 4.3 | 0.00 | 0.14 | 0.01 | 95 | 1012.5 |
| 20260904111502 | 57 | 221 | 0.9 | 4.3 | 0.00 | 0.14 | 0.01 | 95 | 1012.5 |
| 20260904111002 | 57 | 249 | 0.9 | 2.6 | 0.00 | 0.14 | 0.01 | 95 | 1012.5 |
| 20260904110502 | 57 | 257 | 0.9 | 1.7 | 0.00 | 0.14 | 0.01 | 95 | 1012.5 |
| 20260904110024 | 57 | 257 | 0.0 | 1.7 | 0.00 | 0.14 | 0.01 | 95 | 1012.3 |
| 20260904105502 | 57 | 257 | 0.0 | 2.6 | 0.00 | 0.14 | 0.01 | 95 | 1012.3 |
| 20260904105002 | 57 | 255 | 0.9 | 3.5 | 0.00 | 0.14 | 0.01 | 95 | 1012.3 |
| 20260904104502 | 57 | 254 | 0.9 | 4.3 | 0.00 | 0.14 | 0.01 | 95 | 1012.3 |
| 20260904104002 | 57 | 256 | 0.9 | 4.3 | 0.00 | 0.14 | 0.01 | 95 | 1012.3 |
| 20260904103502 | 57 | 247 | 0.9 | 4.3 | 0.00 | 0.14 | 0.01 | 95 | 1012.3 |
| 20260904103002 | 57 | 249 | 1.7 | 6.1 | 0.00 | 0.14 | 0.01 | 95 | 1012.3 |
| 20260904102523 | 58 | 267 | 1.7 | 6.1 | 0.00 | 0.14 | 0.01 | 95 | 1012.3 |
| 20260904102002 | 58 | 286 | 0.9 | 3.5 | 0.00 | 0.14 | 0.01 | 95 | 1012.3 |
| 20260904101502 | 58 | 275 | 0.0 | 1.7 | 0.00 | 0.14 | 0.01 | 95 | 1012.3 |
| 20260904101002 | 58 | 276 | 0.9 | 2.6 | 0.00 | 0.14 | 0.01 | 95 | 1012.3 |
| 20260904100502 | 58 | 279 | 0.9 | 2.6 | 0.00 | 0.14 | 0.01 | 95 | 1012.3 |
| 20260904100002 | 58 | 294 | 0.0 | 2.6 | 0.00 | 0.14 | 0.01 | 95 | 1012.3 |
| 20260904095502 | 58 | 303 | 0.0 | 1.7 | 0.00 | 0.14 | 0.01 | 95 | 1012.3 |
| 20260904095023 | 58 | 323 | 0.9 | 3.5 | 0.00 | 0.14 | 0.01 | 95 | 1012.3 |
| 20260904094523 | 58 | 335 | 0.9 | 4.3 | 0.00 | 0.14 | 0.01 | 95 | 1012.3 |
| 20260904094023 | 58 | 340 | 0.0 | 4.3 | 0.00 | 0.14 | 0.01 | 95 | 1012.1 |
| 20260904093503 | 58 | 323 | 0.0 | 0.9 | 0.00 | 0.14 | 0.01 | 95 | 1012.1 |
| 20260904093023 | 58 | 323 | 0.0 | 2.6 | 0.00 | 0.14 | 0.01 | 95 | 1012.1 |
| 20260904092502 | 58 | 322 | 0.9 | 2.6 | 0.00 | 0.14 | 0.01 | 95 | 1012.1 |
| 20260904092023 | 58 | 313 | 0.9 | 4.3 | 0.00 | 0.14 | 0.01 | 95 | 1012.1 |
| 20260904091524 | 58 | 318 | 0.9 | 4.3 | 0.00 | 0.14 | 0.01 | 95 | 1012.1 |
| 20260904091002 | 58 | 303 | 0.9 | 3.5 | 0.00 | 0.14 | 0.01 | 95 | 1012.1 |
| 20260904090502 | 58 | 270 | 0.9 | 5.2 | 0.00 | 0.14 | 0.01 | 95 | 1012.1 |
| 20260904090002 | 58 | 255 | 1.7 | 6.1 | 0.00 | 0.14 | 0.01 | 95 | 1012.1 |